RH
90 88 90 88 84 82 83 82 82 82 68 76 81 76 75 76 83 76 78 89 83 86 78 88 86 86 91 93 92 92 90 88 88 90 88 86 83 79
80 77 76 74 76 78 81 80 85 88 85 86 88 82 78 72 78 79 81 87 87 86 90 88 87 88 87 88 92 92 89 86 84 84 84 83 84 81
74 74 76 73 76 75 79 78 81 87 96 95 88 84 84 77 75 74 78 78 80 83 84 86 86 85 86 87 86 87 86 85 82 80 80 80 78 76
71 71 72 71 77 74 75 79 84 87 91 92 91 93 93 81 77 75 71 64 70 80 82 83 82 80 80 82 83 83 84 82 81 81 78 76 75 74
68 68 71 70 77 77 78 80 81 74 80 81 87 79 80 74 75 71 71 69 62 65 72 73 74 73 74 75 75 74 73 72 72 71 70 65 65 66
77 76 75 76 77 83 83 80 74 73 71 72 78 83 80 74 77 71 65 54 54 45 50 58 63 63 66 68 69 68 67 63 61 63 64 64 62 63
73 70 74 73 74 72 66 66 63 62 68 75 72 68 63 57 60 54 55 51 48 48 44 42 43 42 44 46 49 52 54 58 62 63 64 64 64 61
78 72 61 58 62 68 67 68 63 60 64 66 64 49 48 48 46 53 60 53 58 48 47 40 39 37 36 36 44 55 56 55 55 55 56 57 58 59
81 72 64 58 54 46 54 60 68 68 65 49 46 48 48 52 74 75 61 61 55 44 50 44 36 34 37 36 54 65 60 60 62 60 58 59 61 61
71 54 51 53 62 54 50 50 48 55 60 53 55 56 58 58 59 71 71 58 49 46 50 63 43 47 45 44 55 66 67 66 65 65 64 62 59 62
51 52 50 50 62 70 55 60 38 41 54 65 63 60 62 63 59 55 68 68 59 48 53 63 60 62 56 53 48 68 71 72 68 65 64 62 62 65
40 42 66 58 61 56 53 45 40 46 53 53 40 38 45 51 62 54 61 86 76 75 63 78 74 71 82 57 62 55 49 58 66 67 69 68 67 64
42 39 44 64 56 58 62 44 48 50 53 44 37 41 46 52 55 58 62 88 88 84 65 77 84 78 78 76 65 62 62 58 54 52 60 64 66 66
41 40 48 58 52 52 48 50 61 59 41 39 46 51 58 65 71 72 71 75 72 86 75 93 90 87 89 85 79 66 67 66 71 72 71 68 70 72
46 53 64 58 53 48 53 56 63 43 43 52 59 71 73 79 89 85 82 85 90 87 91 93 88 88 92 91 85 78 81 74 82 84 80 75 73 69
62 62 58 60 55 51 46 44 44 44 50 56 62 63 70 80 77 75 82 81 85 80 92 88 88 88 89 82 82 84 78 87 78 80 82 78 71 67
59 59 56 46 41 38 38 41 43 47 55 58 68 69 68 70 72 74 78 81 86 84 82 80 78 80 83 90 92 80 76 78 83 87 82 83 78 75
67 63 59 54 49 42 40 39 42 51 52 62 66 70 75 76 76 76 78 82 84 77 78 76 77 79 75 71 81 87 76 78 81 83 80 87 85 77
58 61 64 60 57 54 56 59 64 58 73 77 76 77 78 79 80 79 78 78 78 76 77 77 82 86 92 88 64 73 88 81 81 79 79 82 86 81
61 64 65 59 56 58 62 70 70 68 73 76 78 81 84 84 83 82 79 81 78 77 79 80 84 88 92 91 90 76 69 86 85 85 85 79 75 69
62 66 61 58 59 63 68 72 73 75 78 82 81 83 83 85 83 80 78 75 76 80 87 84 81 71 89 92 92 76 70 68 74 88 87 89 83 77
60 59 56 60 65 70 74 75 77 78 80 81 82 83 82 83 85 83 79 84 82 82 86 84 82 83 89 91 88 84 76 68 65 66 68 76 89 88
58 54 59 66 71 73 75 75 79 79 79 82 84 83 84 87 81 82 83 81 83 84 82 84 80 79 84 86 87 85 87 83 74 77 74 66 70 76
Wind_Speed
3 4 4 3 3 2 1 1 3 3 6 3 1 5 5 4 8 7 7 11 16 20 7 6 13 15 16 7 12 13 14 14 13 9 6 5 7 9
3 3 3 2 2 2 1 1 1 3 4 3 2 3 4 3 5 5 6 8 13 16 15 10 13 15 16 18 18 15 15 13 12 6 2 1 4 5
4 4 5 4 3 3 3 3 2 1 2 2 1 3 3 5 4 4 4 5 5 12 13 13 11 10 9 10 10 10 9 10 8 6 4 2 3 5
5 5 5 4 5 5 3 5 4 3 2 1 2 2 3 5 5 4 4 3 3 9 10 11 10 7 6 7 7 5 5 6 6 4 3 6 7 6
6 6 6 6 5 5 5 4 3 2 2 1 1 1 1 4 3 3 4 4 2 5 7 8 8 7 7 6 5 3 2 1 3 4 4 4 7 9
7 7 7 7 6 5 5 3 4 2 2 1 2 1 2 1 1 3 2 2 3 4 3 4 5 6 7 7 7 8 8 5 1 3 5 7 5 6
8 7 9 10 11 9 4 5 5 3 3 2 1 1 1 2 4 3 4 4 2 4 4 2 4 3 1 1 2 3 4 5 5 6 8 8 8 9
6 5 6 6 7 9 9 9 8 4 3 2 1 1 2 2 3 4 4 4 3 4 6 5 3 4 3 3 6 8 8 9 10 10 11 11 11 10
5 3 4 4 5 4 5 5 6 7 7 3 2 3 2 3 3 4 4 4 4 5 7 5 3 4 3 2 3 7 7 8 8 9 10 11 11 12
3 3 3 4 4 5 4 3 3 2 4 3 3 2 2 2 3 2 4 5 5 1 4 3 4 5 5 4 3 5 6 7 8 9 10 10 10 10
2 2 2 2 4 2 3 2 2 1 1 2 3 4 3 4 5 3 4 4 3 1 2 3 4 6 5 4 3 4 6 6 5 4 7 10 9 7
3 1 2 4 2 1 4 3 4 3 3 4 3 2 1 1 1 3 2 3 3 3 2 4 4 5 4 1 3 4 4 3 5 6 7 8 9 6
2 1 1 4 3 3 1 3 4 4 2 4 3 2 0 1 0 1 2 1 2 3 3 4 3 4 3 5 5 4 5 6 5 5 9 12 13 12
2 1 1 3 3 3 3 4 1 2 3 3 3 2 2 1 0 2 3 3 4 5 6 3 3 3 4 6 6 2 4 6 6 7 6 8 12 15
2 1 2 3 3 3 3 2 3 3 3 3 3 3 2 2 3 3 4 4 6 6 5 5 6 5 5 6 7 7 8 3 6 8 7 6 6 7
4 3 3 4 4 4 4 4 3 3 3 4 3 3 3 3 4 3 5 5 5 6 3 5 6 6 7 8 9 10 8 7 3 6 7 8 8 9
4 3 4 3 4 4 4 4 4 4 4 4 4 4 4 4 4 4 5 5 6 6 5 3 5 8 9 10 9 10 10 9 7 7 7 9 9 8
6 5 5 4 5 4 4 4 4 5 4 4 4 5 5 5 5 5 5 6 7 6 6 5 5 6 7 8 18 10 9 9 7 7 8 9 10 9
7 6 6 5 5 5 5 5 5 5 3 4 5 5 5 5 6 6 6 6 7 7 7 5 6 6 8 9 7 18 9 8 7 8 8 8 11 10
6 7 6 6 6 6 6 6 5 5 6 5 6 6 5 6 6 7 6 7 7 8 7 6 7 7 9 9 8 8 10 9 9 10 10 9 10 20
7 7 7 6 6 6 6 6 6 6 6 5 6 6 6 6 7 7 7 11 12 9 10 8 7 11 6 6 7 10 9 18 18 11 9 9 11 11
6 7 7 6 6 6 6 6 6 7 7 6 7 6 6 6 7 8 8 8 8 8 9 8 7 7 7 8 11 13 10 9 13 19 23 22 9 8
7 6 6 6 6 6 6 6 7 7 7 7 7 7 6 7 7 8 8 9 9 9 9 9 8 7 9 9 13 12 16 13 10 10 11 20 27 30
Wind_Direction
51 45 70 61 65 54 297 234 246 268 280 109 180 38 6 14 18 21 10 10 8 1 344 30 48 33 32 86 147 129 122 117 114 124 150 189 225 247
47 58 73 50 70 87 67 96 231 260 261 14 59 6 357 5 27 29 18 15 13 18 41 63 63 63 57 69 82 108 122 124 131 144 175 12 345 316
66 76 73 59 64 55 51 58 73 337 251 125 65 13 343 4 1 21 21 13 5 18 34 40 51 59 68 75 86 101 109 118 120 119 127 139 223 265
86 82 75 67 61 53 59 58 43 14 325 239 51 23 9 354 355 2 2 13 357 14 26 29 38 45 59 90 104 112 125 118 130 140 192 253 248 261
72 72 67 71 68 59 50 45 47 23 35 338 68 8 11 20 350 358 1 354 19 13 21 24 27 34 43 48 56 72 80 194 231 237 214 243 269 273
79 78 76 72 61 62 62 47 35 11 34 34 50 356 346 7 339 342 317 7 4 7 47 30 17 24 31 35 42 40 42 40 350 237 248 252 252 270
78 72 59 60 59 47 38 39 25 16 18 5 9 280 4 5 358 341 315 331 20 359 338 12 336 337 20 10 345 354 333 304 277 261 254 251 252 257
86 63 67 61 56 51 47 42 29 21 28 353 289 324 26 0 357 356 335 340 324 71 338 314 339 307 317 313 337 297 286 267 260 256 256 255 252 252
86 93 82 74 54 48 58 52 50 51 37 337 352 23 349 12 20 321 339 326 310 345 323 298 354 311 342 297 316 311 282 266 260 254 250 248 244 245
104 110 81 70 72 24 20 26 21 33 33 22 20 19 348 314 302 331 304 305 279 332 331 285 355 322 337 317 15 314 292 277 263 256 250 248 245 251
120 85 50 28 23 113 13 357 344 29 132 1 349 341 340 326 310 286 288 301 300 299 19 314 347 323 321 325 0 355 4 14 355 296 274 265 254 257
149 145 36 341 338 341 311 341 325 354 332 310 300 246 266 97 347 289 287 278 299 269 80 321 337 353 316 6 322 330 320 275 308 297 289 285 265 256
209 199 215 304 325 310 227 316 320 320 291 300 305 302 300 128 115 45 28 320 284 279 65 345 305 314 300 307 310 294 291 295 291 272 251 254 256 256
230 219 220 305 321 330 284 308 45 265 288 290 285 284 300 295 313 330 322 308 278 271 297 305 270 275 283 294 277 264 279 285 284 282 281 277 269 260
231 201 279 302 306 270 291 315 271 262 268 266 267 273 279 326 296 259 271 265 253 259 267 251 266 279 273 263 279 292 297 281 288 273 265 259 261 263
212 220 247 296 292 305 284 248 255 262 268 268 271 276 267 259 271 291 295 299 292 289 213 259 257 255 266 264 268 275 271 271 254 264 279 278 269 262
210 220 234 246 258 253 254 256 256 251 249 258 258 259 258 265 271 273 274 285 281 287 287 233 247 267 266 265 268 261 267 268 264 268 268 272 269 263
218 241 246 245 257 263 258 257 248 253 252 254 257 261 265 268 273 271 264 263 269 280 283 279 277 290 285 247 223 255 266 270 276 278 273 272 275 262
237 242 246 252 256 253 252 248 253 243 244 247 254 259 262 262 266 264 264 265 268 272 270 270 263 259 270 274 275 212 261 277 283 276 265 258 268 272
232 241 247 249 250 248 246 244 247 246 238 242 244 249 253 256 260 260 259 265 271 276 277 267 255 248 249 266 286 285 253 268 267 270 273 270 268 274
227 232 238 241 241 241 240 242 243 245 245 244 246 244 248 250 258 261 263 264 265 268 271 270 268 271 265 265 255 260 262 242 243 254 268 275 278 278
231 236 237 234 236 236 236 236 239 242 245 243 243 244 244 244 252 257 257 262 262 264 271 279 281 270 256 254 266 276 276 272 268 264 257 247 253 267
226 232 232 236 234 230 230 234 236 243 243 245 244 241 239 244 246 252 258 260 263 267 271 277 277 269 262 260 266 273 273 273 271 272 265 253 250 253